www.pogodaiklimat.ru

Погода и климат >> Архив погоды >> Франция >> Страсбург


АРХИВ ПОГОДЫ в Страсбурге

Время (UTC), дата Ветер
(напр.,м/с)
 
Видим.   Явления Облачность Т
(С)
Тd
(С)
f
(%)
Тe
(С)
Тes
(С)
Комфортность P
(гПа)
Po
(гПа)
Тmin
(С)
Tmax
(С)
R
(мм)
R24
(мм)
S
(см)
16 10.09 СВ 2 45 км н/о +21.4 +7.6 41 +22 +22 комфорт 1017.4 999.8
17 10.09 СВ 2 45 км н/о +20.2 +8.2 46 +22 +22 комфорт 1017.8 1000.2
18 10.09 СВ 3
{6}
55 км н/о +17.9 +9.3 57 +18 +18 по сезону 1018.8 1001.0 +8.9 +22.0 0
19 10.09 СВ 1 55 км н/о +15.1 +9.0 67 +16 +16 тепло 1019.6 1001.6
20 10.09 С 1 45 км н/о +13.6 +9.4 76 +15 +15 по сезону 1020.2 1002.1
21 10.09 С 2
{3}
40 км н/о +12.6 +9.2 80 +12 +12 прохладно 1020.4 1002.3 0
22 10.09 СЗ 1 30 км н/о +11.4 +8.4 82 +12 +12 по сезону 1021.1 1002.9
23 10.09 СЗ 1 35 км н/о +10.3 +8.2 87 +11 +11 по сезону 1021.4 1003.1
00 11.09 СЗ 1
{2}
35 км н/о +9.4 +7.8 90 +10 +10 по сезону 1021.6 1003.2 0
01 11.09 штиль 0 30 км н/о +8.8 +7.7 93 +8 +8 по сезону 1021.7 1003.3
02 11.09 штиль 0 30 км н/о +8.3 +6.9 91 +7 +7 прохладно 1021.9 1003.5
03 11.09 В 1
{2}
45 км н/о +7.6 +6.4 92 +7 +7 прохладно 1022.3 1003.8 0
04 11.09 ЮЗ 1 27 км н/о +7.4 +6.7 95 +7 +7 по сезону 1022.8 1004.3
05 11.09 ЮЗ 1 19 км н/о +7.1 +6.4 95 +7 +7 прохладно 1023.6 1005.0
06 11.09 Ю 1
{3}
19 км н/о +8.9 +8.3 96 +8 +8 прохладно 1024.1 1005.7 +6.9 +17.9 0
07 11.09 З 1 30 км н/о +12.2 +9.0 81 +13 +13 по сезону 1024.5 1006.3
08 11.09 С 1 22 км н/о +14.7 +9.1 69 +16 +16 по сезону 1025.0 1006.9
09 11.09 СЗ 1
{3}
19 км н/о +17.2 +9.6 61 +18 +18 тепло 1024.8 1006.9 0
10 11.09 В 1 24 км н/о +19.3 +10.3 56 +21 +21 комфорт 1024.6 1006.8
11 11.09 С 1 30 км 10/10
[]
+21.0 +8.3 44 +23 +23 комфорт 1024.3 1006.6
12 11.09 З 2
{4}
40 км 10/0
[]
+21.9 +8.7 43 +23 +28 комфорт 1024.1 1006.5 0
13 11.09 СЗ 2 45 км 10/10
[]
+21.6 +9.2 45 +23 +23 комфорт 1024.4 1006.7
14 11.09 СЗ 1 45 км 9/9
[]
+21.5 +9.4 46 +23 +24 комфорт 1024.3 1006.6
15 11.09 Ю 2
{4}
55 км 10/0
[]
+20.7 +9.9 50 +23 +25 комфорт 1024.8 1007.1 0
16 11.09 Ю 1 55 км 10/10
[]
+20.4 +9.6 50 +23 +23 комфорт 1025.2 1007.5
17 11.09 Ю 1 55 км 10/10
[]
+19.5 +10.8 57 +22 +22 комфорт 1025.4 1007.6
18 11.09 Ю 2
{4}
18 км 10/0
[]
+18.5 +11.3 63 +19 +19 тепло 1025.9 1008.0 +9.0 +22.3 0
19 11.09 Ю 1 50 км 10/10
[]
+17.5 +10.8 65 +19 +19 тепло 1026.6 1008.7
20 11.09 Ю 2 45 км 9/9 2000 м
[]
+16.3 +10.8 70 +17 +17 тепло 1027.1 1009.1
21 11.09 ЮЗ 2
{4}
35 км 9/0 2000 м
[]
+16.4 +11.5 73 +17 +17 тепло 1027.5 1009.5 0
22 11.09 ЮЗ 1 28 км 9/9 1500 м
[]
+15.2 +12.0 81 +16 +16 тепло 1027.7 1009.6
23 11.09 Ю 1 28 км 8/8 1500 м
[]
+14.1 +11.6 85 +15 +15 тепло 1028.1 1009.9
00 12.09 Ю 2
{2}
25 км 10/10 1500 м
[]
+14.2 +12.2 88 +14 +14 тепло 1028.4 1010.2 0
01 12.09 Ю 1 35 км 10/10 1500 м
[]
+14.6 +11.6 82 +15 +15 тепло 1028.7 1010.6
02 12.09 Ю 1 35 км 10/10 1500 м
[]
+14.8 +11.8 82 +15 +15 тепло 1028.7 1010.6
03 12.09 ЮЗ 2
{4}
45 км 10/10 1500 м
[]
+14.5 +11.1 80 +14 +14 тепло 1029.1 1010.9 0
04 12.09 Ю 1 40 км н/о +12.5 +10.4 87 +12 +12 тепло 1029.3 1011.0
05 12.09 Ю 1 40 км н/о +11.5 +9.9 90 +11 +11 по сезону 1029.8 1011.4
06 12.09 Ю 3
{5}
50 км 10/10 1500 м
[]
+13.5 +10.1 80 +13 +13 тепло 1030.2 1012.0 +11.4 +18.5 0
07 12.09 Ю 1 55 км 10/10 1500 м
[]
+15.4 +10.2 71 +16 +16 по сезону 1030.5 1012.4
08 12.09 ЮЗ 2 50 км 10/10 1500 м
[]
+17.8 +10.9 64 +19 +19 тепло 1030.9 1012.9
09 12.09 Ю 2
{4}
50 км 10/10 1500 м
[]
+19.5 +11.8 61 +21 +21 комфорт 1031.2 1013.3 0
10 12.09 Ю 1 50 км 10/10 1500 м
[]
+21.3 +11.6 54 +23 +23 комфорт 1031.4 1013.6
11 12.09 ЮЗ 1 50 км 9/9 2000 м
[]
+23.5 +10.9 45 +25 +26 комфорт 1031.0 1013.4
12 12.09 Ю 2
{6}
50 км н/о +24.8 +11.0 42 +26 +26 жарко 1030.6 1013.0 0
13 12.09 Ю 1 18 км н/о +26.1 +11.4 40 +27 +27 жарко 1030.2 1012.7
14 12.09 ЮЗ 1 35 км н/о +26.3 +11.6 40 +28 +28 жарко 1029.9 1012.4
15 12.09 Ю 1
{5}
45 км н/о +26.7 +12.0 40 +28 +28 жарко 1029.4 1012.0 0
16 12.09 ЮЗ 2 45 км н/о +26.9 +11.8 39 +28 +28 жарко 1029.2 1011.8
17 12.09 ЮЗ 2 55 км н/о +24.4 +12.0 46 +26 +26 жарко 1029.6 1012.0
18 12.09 Ю 1
{3}
4100 м дымка н/о +20.3 +13.0 63 +24 +24 комфорт 1030.0 1012.2 +13.5 +27.1 0
19 12.09 СЗ 1 55 км н/о +18.1 +12.8 71 +20 +20 тепло 1030.8 1012.8
20 12.09 СЗ 1 60 км н/о +18.4 +13.3 72 +20 +20 тепло 1031.1 1013.2
21 12.09 ЮВ 1
{3}
60 км н/о +16.4 +13.1 81 +18 +18 тепло 1031.3 1013.2 0
22 12.09 ЮЗ 1 55 км н/о +14.8 +13.0 89 +16 +16 тепло 1031.4 1013.2
23 12.09 Ю 1 45 км н/о +14.1 +12.3 89 +15 +15 тепло 1031.5 1013.3
00 13.09 штиль 0
{3}
55 км н/о +14.2 +12.9 92 +14 +14 тепло 1031.7 1013.5 0
01 13.09 ЮЗ 1 40 км н/о +13.3 +12.0 92 +14 +14 тепло 1031.8 1013.5
02 13.09 ЮВ 1 27 км н/о +12.4 +11.3 93 +13 +13 тепло 1031.8 1013.5
03 13.09 ЮВ 1
{2}
20 км н/о +12.0 +11.1 94 +12 +12 по сезону 1031.8 1013.4 0
04 13.09 Ю 1 13 км н/о +12.0 +11.5 97 +13 +13 тепло 1031.9 1013.5
05 13.09 Ю 1 10 км н/о +12.2 +11.9 98 +13 +13 тепло 1032.3 1013.9
06 13.09 ЮВ 1
{2}
13 км н/о +14.1 +13.5 96 +15 +15 тепло 1032.3 1014.1 +11.7 +20.2 0
07 13.09 СВ 1 22 км н/о +17.7 +14.2 80 +19 +19 тепло 1032.2 1014.2
08 13.09 В 1 24 км н/о +19.9 +14.5 71 +23 +23 комфорт 1032.6 1014.7
09 13.09 С 4
{6}
19 км н/о +22.2 +15.5 66 +26 +26 душно 1032.5 1014.8 0
10 13.09 С 1 50 км 10/10 870 м
[]
+22.4 +15.0 63 +26 +26 жарко 1032.3 1014.6
11 13.09 СЗ 2 19 км 9/9 1140 м
[]
+24.0 +15.2 58 +27 +28 жарко 1031.9 1014.3
12 13.09 С 4
{8}
40 км н/о +24.6 +14.7 54 +27 +27 жарко 1031.6 1014.0 0
13 13.09 С 2 19 км н/о +25.3 +14.4 51 +28 +28 жарко 1030.8 1013.3
14 13.09 СВ 2 40 км н/о +25.6 +14.1 49 +28 +28 жарко 1030.6 1013.1
15 13.09 С 5
{7}
16 км н/о +26.2 +14.6 49 +29 +29 жарко 1030.3 1012.8 0
16 13.09 С 3 23 км н/о +25.3 +15.3 54 +28 +28 жарко 1030.2 1012.7
17 13.09 С 3 35 км н/о +23.5 +14.8 58 +26 +26 жарко 1030.3 1012.7
18 13.09 С 4
{7}
60 км н/о +21.5 +14.6 65 +25 +25 комфорт 1030.8 1013.1 +14.2 +26.5 0
19 13.09 С 2 55 км н/о +19.3 +14.5 74 +22 +22 комфорт 1031.3 1013.4
20 13.09 С 2 50 км н/о +17.4 +14.3 82 +18 +18 тепло 1031.5 1013.5
21 13.09 С 3
{4}
45 км н/о +16.8 +13.9 83 +17 +17 тепло 1031.6 1013.6 0
22 13.09 С 2 50 км н/о +17.3 +14.0 81 +18 +18 тепло 1031.5 1013.5
23 13.09 С 1 40 км н/о +16.7 +14.0 84 +18 +18 тепло 1031.3 1013.3
00 14.09 С 3
{5}
40 км н/о +16.5 +14.0 85 +16 +16 тепло 1031.7 1013.6 0
01 14.09 С 1 24 км н/о +15.9 +14.1 89 +17 +17 тепло 1031.2 1013.1
02 14.09 СЗ 1 19 км н/о +15.6 +14.0 90 +16 +16 тепло 1031.0 1012.9
03 14.09 С 2
{4}
23 км 10/10 1000 м
[]
+16.5 +14.5 88 +17 +17 тепло 1030.3 1012.3 0
04 14.09 С 2 27 км 10/10 1440 м
[]
+16.8 +14.3 85 +17 +17 тепло 1030.3 1012.3
05 14.09 С 2 30 км 10/10 1500 м
[]
+16.5 +14.0 85 +17 +17 тепло 1030.7 1012.7
06 14.09 С 4
{7}
35 км 10/10 1500 м
[]
+16.4 +13.9 85 +16 +16 тепло 1031.1 1013.0 +15.6 +21.5 0
07 14.09 С 3 35 км 10/10 1500 м
[]
+16.8 +13.7 82 +17 +17 тепло 1031.3 1013.3
08 14.09 С 2 45 км 9/9 1500 м
[]
+18.2 +14.1 77 +19 +20 тепло 1031.1 1013.2
09 14.09 СВ 4
{6}
40 км н/о +19.5 +14.3 72 +21 +21 комфорт 1030.9 1013.0 0
10 14.09 С 2 30 км н/о +21.4 +14.5 65 +24 +24 комфорт 1030.3 1012.6
11 14.09 С 2 35 км н/о +23.3 +14.8 59 +27 +27 душно 1029.5 1011.9
12 14.09 С 4
{7}
30 км н/о +24.3 +15.2 57 +27 +27 жарко 1028.8 1011.3 0
13 14.09 СВ 2 40 км н/о +25.2 +15.5 55 +28 +28 жарко 1028.1 1010.6
14 14.09 СВ 2 40 км н/о +25.7 +15.4 53 +29 +29 душно 1027.5 1010.1
15 14.09 СВ 4
{8}
45 км н/о +25.7 +15.4 53 +29 +29 душно 1027.0 1009.6 0
16 14.09 СВ 3 30 км н/о +25.0 +14.8 53 +28 +28 жарко 1026.8 1009.3
17 14.09 СВ 2 55 км н/о +24.0 +14.7 56 +27 +27 жарко 1026.7 1009.2
18 14.09 С 3
{5}
1700 м дымка н/о +21.9 +14.3 62 +25 +25 комфорт 1027.0 1009.3 +16.4 +26.0 0
19 14.09 С 2 60 км н/о +19.5 +14.1 71 +22 +22 комфорт 1027.2 1009.4
20 14.09 СЗ 1 55 км н/о +17.9 +13.6 76 +19 +19 тепло 1027.2 1009.3
21 14.09 СЗ 2
{3}
50 км н/о +16.9 +13.2 79 +17 +17 тепло 1027.3 1009.3 0
22 14.09 СЗ 1 45 км н/о +15.9 +13.0 83 +17 +17 тепло 1027.0 1009.0
23 14.09 З 1 40 км н/о +15.1 +12.6 85 +16 +16 тепло 1026.5 1008.4
00 15.09 С 1
{2}
35 км н/о +14.1 +12.1 88 +14 +14 тепло 1026.2 1008.1 0
01 15.09 СЗ 1 26 км н/о +13.4 +11.8 90 +14 +14 тепло 1026.2 1008.0
02 15.09 З 1 26 км н/о +13.1 +11.7 91 +14 +14 тепло 1026.1 1007.9
03 15.09 З 1
{2}
21 км н/о +12.6 +11.7 94 +13 +13 по сезону 1025.8 1007.6 0
04 15.09 ЮЗ 1 15 км н/о +11.8 +10.9 94 +12 +12 тепло 1025.6 1007.3
05 15.09 ЮЗ 1 13 км н/о +11.5 +10.7 95 +12 +12 тепло 1025.6 1007.3
06 15.09 ЮЗ 1
{2}
15 км н/о +12.9 +12.0 94 +13 +13 тепло 1025.8 1007.6 +11.2 +21.9 0
07 15.09 Ю 1 10 км н/о +17.0 +13.3 79 +19 +19 тепло 1025.4 1007.5
08 15.09 В 1 29 км н/о +19.4 +14.2 72 +23 +23 комфорт 1025.4 1007.6
09 15.09 Ю 1
{3}
15 км н/о +21.7 +14.8 65 +25 +25 комфорт 1025.1 1007.5 0
10 15.09 ЮВ 1 30 км н/о +23.4 +15.4 61 +28 +28 душно 1024.7 1007.2
11 15.09 В 1 28 км н/о +24.7 +15.6 57 +28 +28 душно 1024.1 1006.7
12 15.09 С 2
{5}
35 км н/о +26.6 +15.3 50 +29 +29 жарко 1023.2 1005.9 0
13 15.09 СЗ 1 30 км н/о +28.0 +16.0 48 +31 +31 душно 1022.4 1005.2
14 15.09 Ю 1 17 км н/о +28.3 +15.9 47 +31 +31 душно 1021.6 1004.4
15 15.09 Ю 2
{5}
40 км н/о +28.9 +15.8 45 +32 +32 душно 1021.0 1003.9 0
16 15.09 Ю 1 30 км н/о +28.3 +16.6 49 +32 +32 душно 1020.7 1003.5
17 15.09 Ю 1 55 км н/о +26.4 +16.6 55 +30 +30 душно 1020.4 1003.1
18 15.09 СВ 1
{2}
17 км н/о +22.9 +16.2 66 +27 +27 душно 1020.7 1003.2 +13.0 +29.3 0
19 15.09 СВ 1 40 км н/о +20.5 +15.7 74 +25 +25 комфорт 1021.2 1003.6
20 15.09 С 1 35 км н/о +19.0 +14.7 76 +22 +22 комфорт 1021.6 1003.9
21 15.09 штиль 0
{2}
45 км н/о +17.3 +14.2 82 +17 +17 тепло 1021.6 1003.8 0
22 15.09 З 1 27 км н/о +16.4 +13.7 84 +18 +18 тепло 1021.7 1003.8
23 15.09 ЮЗ 1 29 км н/о +15.4 +13.4 88 +17 +17 тепло 1021.7 1003.7
00 16.09 ЮЗ 1
{2}
25 км н/о +14.5 +13.0 91 +15 +15 тепло 1021.6 1003.6 0
01 16.09 ЮВ 1 21 км н/о +14.0 +12.9 93 +15 +15 тепло 1021.3 1003.3
02 16.09 СВ 1 20 км н/о +14.8 +14.2 96 +15 +15 тепло 1021.1 1003.1
03 16.09 С 1
{3}
21 км н/о +13.8 +12.7 93 +15 +15 тепло 1021.0 1003.0 0
04 16.09 СЗ 1 23 км н/о +13.3 +12.4 94 +14 +14 тепло 1020.9 1002.8
05 16.09 СЗ 1 22 км н/о +12.8 +11.9 94 +14 +14 тепло 1020.8 1002.7
06 16.09 штиль 0
{3}
19 км н/о +13.5 +12.4 93 +13 +13 тепло 1020.8 1002.7 +12.5 +22.8 0
07 16.09 С 1 19 км н/о +17.4 +13.1 76 +18 +18 тепло 1020.7 1002.9
08 16.09 С 1 25 км н/о +19.3 +13.9 71 +22 +22 комфорт 1020.7 1003.0
09 16.09 С 2
{5}
27 км н/о +21.7 +12.8 57 +24 +24 комфорт 1020.5 1002.9 0
10 16.09 С 1 25 км н/о +23.1 +12.7 52 +26 +26 жарко 1020.3 1002.8
14 16.09 В 1 55 км 9/9
[]
+27.7 +12.5 39 +29 +30 жарко 1017.5 1000.3
15 16.09 В 1
{4}
50 км н/о +27.9 +12.7 39 +29 +29 жарко 1017.1 1000.0 0
16 16.09 В 1 55 км 9/9
[]
+26.8 +11.7 39 +28 +28 жарко 1017.2 1000.0
17 16.09 С 2 55 км 9/9
[]
+25.6 +8.6 34 +26 +26 жарко 1017.2 999.9
18 16.09 СВ 2
{7}
60 км 10/0
[]
+23.3 +10.0 43 +25 +25 комфорт 1017.5 1000.1 +13.5 +28.9 0
19 16.09 В 1 60 км 10/10
[]
+21.8 +8.7 43 +23 +23 комфорт 1018.3 1000.8
20 16.09 С 1 60 км 10/10
[]
+21.5 +10.0 48 +23 +23 комфорт 1018.5 1000.9
21 16.09 штиль 0
{3}
55 км 9/0
[]
+19.9 +9.7 52 +21 +21 комфорт 1018.6 1000.9 0
22 16.09 ЮЗ 1 55 км н/о +18.8 +9.6 55 +21 +21 комфорт 1018.7 1001.0
23 16.09 ЮЗ 1 55 км н/о +18.7 +9.7 56 +21 +21 комфорт 1018.6 1000.9
00 17.09 С 2
{4}
55 км 10/0
[]
+17.7 +10.3 62 +18 +18 тепло 1018.9 1001.1 0
01 17.09 С 2 50 км 10/10
[]
+18.4 +11.0 62 +20 +20 тепло 1019.0 1001.3
02 17.09 СВ 1 40 км 10/10 2000 м
[]
+18.0 +12.0 68 +19 +19 тепло 1018.8 1001.0
03 17.09 С 2
{4}
29 км 10/0
[]
+17.2 +12.1 72 +18 +18 тепло 1019.1 1001.3 0
04 17.09 С 1 19 км н/о +16.0 +12.2 78 +17 +17 тепло 1019.2 1001.3
05 17.09 С 2 16 км н/о +14.8 +12.5 86 +14 +14 тепло 1019.7 1001.7
06 17.09 СЗ 1
{5}
14 км 10/10 1000 м
[]
+16.1 +13.4 84 +17 +17 тепло 1019.8 1001.9 +14.8 +23.3 0
07 17.09 С 2 17 км 10/10 1500 м
[]
+17.0 +13.9 82 +17 +17 тепло 1020.0 1002.2
08 17.09 СВ 3 19 км 10/9 450 м
[]
+16.8 +12.5 76 +17 +17 тепло 1020.8 1002.9
09 17.09 СВ 6
{9}
19 км 10/10 300 м
[]
+15.9 +12.6 81 +15 +15 по сезону 1021.4 1003.5 0
10 17.09 СВ 3 16 км 10/10 420 м
[]
+15.6 +12.5 82 +15 +15 холодно 1021.7 1003.7
11 17.09 С 2 18 км 10/10 480 м
[]
+16.8 +12.3 75 +17 +17 прохладно 1021.5 1003.6
12 17.09 С 3
{7}
35 км 8/8 600 м
[]
+18.3 +12.3 68 +19 +20 по сезону 1020.8 1003.0 0
13 17.09 С 2 30 км 8/8 960 м
[]
+19.9 +11.9 60 +22 +24 комфорт 1020.2 1002.5
14 17.09 СЗ 3 35 км 8/8 1110 м
[]
+21.4 +11.7 54 +23 +25 комфорт 1019.7 1002.1
15 17.09 С 5
{8}
45 км н/о +21.5 +10.6 50 +23 +23 комфорт 1019.5 1001.9 0

 

Местоположение метеостанции Страсбург (Франция): широта 48.55 долгота 7.63 высота над уровнем моря 153 м.

В архиве по умолчанию представлена погода в Страсбурге за последнюю неделю. Архивные данные за месяц целиком и за предыдущие месяцы, начиная с января 2011 года, Вы можете получить, выбрав интересующий диапазон дат из раскрывающегося списка и нажав кнопку "Ввод!".


*Определитесь, кто Вы:
робот инопланетянин человек

Внимание! Время в таблицах - всемирное. Для получения местного времени необходимо прибавить поправку, которая равна 1 ч.

Смотрите также архив погоды в соседних городах и на ближайших метеорологических станциях:

Погода в Ларе (Германия) (25 км)
Погода в Фройденштадте (Германия) (59 км)
Погода во Фрайбурге (Германия) (63 км)
Погода в Райнштеттене (Германия) (69 км)
Погода в Мененгейме (Франция) (72 км)
Погода в Фельдберге (Германия) (79 км)
Погода в Саарбрюккене (Германия) (83 км)
Погода на Клиппенеке (Германия) (97 км)
Погода в Вайнбите (Германия) (99 км)
Погода в Мюлаккере (Германия) (102 км)

Пояснения к столбцам:

Ветер - указаны скорость ветра в м/с - средняя за 10 мин, порывы в срок и между сроками (в фигурных скобках) и направление, откуда дует ветер: С - северный, СВ - северо-восточный, В - восточный, ЮВ - юго-восточный, Ю - южный, ЮЗ - юго-западный, З - западный, СЗ - северо-западный.
Видимость - горизонтальная дальность видимости в метрах или километрах. При видимости от 1 до 10 км при отсутствии осадков обычно наблюдается дымка, при ухудшении видимости до 1 км и менее - туман. В сухую погоду видимость может ухудшаться дымом, пылью или мглою.
Явления - указаны атмосферные явления, наблюдавшиеся в срок или в последний час перед сроком; фигурными скобками обозначены явления, наблюдавшиеся между сроками (за 1-3 часа до срока); квадратными скобками обозначены град или гололедные отложения с указанием их диаметра в мм.
Облачность - указаны через наклонную черту общая и нижняя облачность в баллах и высота нижней границы облаков в метрах; квадратными скобками обозначены формы облаков: Ci - перистые, Cs - перисто-слоистые, Cc - перисто-кучевые, Ac - высококучевые, As - высокослоистые, Sc - слоисто-кучевые, Ns - слоисто-дождевые, Cu - кучевые, Cb - кучево-дождевые. Подробнее классификацию облаков см. в Атласе облаков (PDF).
T - Температура воздуха - температура, измеренная на высоте 2 м над землей.
Td - Температура точки росы - температура, при понижении до которой содержащийся в воздухе водяной пар достигнет насыщения.
f - Относительная влажность воздуха - влажноcть воздуха, измеренная на высоте 2 м над землей.
Te - Эффективная температура - температура, которую ощущает одетый по сезону человек в тени. Характеристика душности погоды. При расчете учитывается влияние влажности воздуха и скорости ветра на теплоощущения человека.
Tes - Эффективная температура на солнце - температура, которую ощущает человек, с поправкой на солнечный нагрев. Характеристика знойности погоды. Зависит от высоты солнца над горизонтом, облачности и скорости ветра. Ночью, в пасмурную погоду, а также при ветре 12 м/с и более поправка равна нулю.
P - Атмосферное давление - приведенное к уровню моря атмосферное давление.
Po - Атмосферное давление - измеренное на уровне метеостанции атмосферное давление.
Tmin - Минимальная температура - минимум температуры воздуха на высоте 2 м над землей.
Tmax - Максимальная температура - максимум температуры воздуха на высоте 2 м над землей.
R - Количество осадков - Количество выпавших осадков за период времени, мм. При наведении курсора мыши на число - период времени, за который выпало указанное количество осадков.
R24 - Количество осадков - Количество выпавших осадков за 24 часа, мм.
S - Снежный покров - Высота снежного покрова, см. При наведении курсора мыши на число - состояние снежного покрова и степень покрытия местности в баллах.